METEOR 3-4

导读 | 星芒AI

METEOR 3-4 是俄罗斯一颗用于地球观测的气象卫星,属于 METEOR 系列。该卫星主要用于收集气象数据,支持天气预报、气候研究和自然灾害监测。它搭载多种遥感仪器,能够获取高分辨率的地球表面图像和大气参数。METEOR 3-4 在近地轨道运行,为俄罗斯及其国际合作伙伴提供重要的气象信息服务。

基本信息
目录编号:
21232
目录名称:
METEOR 3-4
国际标识:
1991-030A
轨道中心:
EARTH
卫星名称:
METEOR 3-4
卫星全名:
--
卫星状态:
在轨 (已飞行12652 天)
发射日期:
1991-04-24 UTC
国别 :
俄罗斯(独联体) (CIS)
星等 :
--
轨道信息
数据来源 国际轨道数据
星历时间: 2025-12-13T08:03:45+0800
9小时前
查看轨道信息
半长轴: 7575.506km
偏心率: 0.0011681
轨道倾角: 82.542°
近地点辐角 263.927°
升交点赤经 316.025°
平近点角 156.440°
近地点: 1188.522km
远地点: 1206.22km
周期: 109.365分钟
每日圈数: 13.166955
详细信息
使用方式:
暂无
2D轨道图
3D轨道图
轨道高度分析图
轨道倾角分析图
轨道综合分析图
查看轨道综合分析图